Weather History for Fort Madison, IA

Change the Weather History Date:

Sunday, October 13, 2013

  Actual Average Record
Temperature  
Mean Temperature 54 °F -  
Max Temperature 68 °F 66 °F 88 °F (1975)
Min Temperature 39 °F 43 °F 28 °F (1979)
Degree Days  
Heating Degree Days 12    
Growing Degree Days 4 (Base 50)    
Moisture  
Dew Point 32 °F    
Average Humidity 50    
Maximum Humidity 87    
Minimum Humidity 17    
Precipitation  
Precipitation 0.00 in - - ()
Sea Level Pressure  
Sea Level Pressure 30.36 in    
Wind  
Wind Speed 3 mph (NNW)    
Max Wind Speed 8 mph    
Max Gust Speed -    
Visibility 10 miles    
Events      
Averages and records for this station are not official NWS values.
T = Trace of Precipitation, MM = Missing Value Source: NWS Daily Summary

Daily Weather History Graph

Daily Weather History Graph

Search for Another Location

Airport:

Trip Planner

Search our weather history database for the weather conditions in past years. The results will help you decide how hot, cold, wet, or windy it might be!

Date:

Astronomy

Oct. 13, 2013 Rise Set
Actual Time 7:14 AM CDT 6:27 PM CDT
Civil Twilight 6:47 AM CDT 6:55 PM CDT
Nautical Twilight 6:15 AM CDT 7:26 PM CDT
Astronomical Twilight 5:43 AM CDT 7:58 PM CDT
Moon 3:20 PM CDT (10/13) 1:23 AM CDT (10/13)
Length of Visible Light 12h 08m
Length of Day
11h 13m
Waxing Gibbous, 69% of the Moon is Illuminated
Oct 13
Waxing Gibbous
Oct 18
Full
Oct 26
Last Quarter
Nov 3
New
Nov 9
First Quarter

Hourly Weather History & Observations

Time (CDT) Temp. Windchill Dew Point Humidity Pressure Visibility Wind Dir Wind Speed Gust Speed Precip Events Conditions
12:15 AM 48.2 °F - 35.6 °F 62% 30.24 in 10.0 mi NW 4.6 mph - N/A   Clear
12:35 AM 48.2 °F - 35.6 °F 62% 30.25 in 10.0 mi WNW 3.5 mph - N/A   Clear
12:55 AM 46.4 °F 45.2 °F 35.6 °F 66% 30.25 in 10.0 mi WNW 3.5 mph - N/A   Clear
1:15 AM 46.4 °F 44.3 °F 35.6 °F 66% 30.26 in 10.0 mi WNW 4.6 mph - N/A   Clear
1:35 AM 46.4 °F 42.9 °F 35.6 °F 66% 30.26 in 10.0 mi NW 6.9 mph - N/A   Clear
1:55 AM 46.4 °F 43.5 °F 35.6 °F 66% 30.27 in 10.0 mi NW 5.8 mph - N/A   Clear
2:15 AM 48.2 °F - 35.6 °F 62% 30.28 in 10.0 mi NW 5.8 mph - N/A   Clear
3:55 AM 44.6 °F 43.1 °F 35.6 °F 71% 30.31 in 10.0 mi NW 3.5 mph - N/A   Clear
4:35 AM 44.6 °F - 35.6 °F 71% 30.32 in 10.0 mi Calm Calm - N/A   Clear
4:55 AM 44.6 °F 43.1 °F 35.6 °F 71% 30.32 in 10.0 mi NW 3.5 mph - N/A   Clear
5:15 AM 42.8 °F 41.1 °F 35.6 °F 76% 30.33 in 10.0 mi WNW 3.5 mph - N/A   Clear
5:35 AM 42.8 °F 41.1 °F 35.6 °F 76% 30.34 in 10.0 mi WNW 3.5 mph - N/A   Clear
5:55 AM 42.8 °F 41.1 °F 35.6 °F 76% 30.34 in 10.0 mi NW 3.5 mph - N/A   Clear
6:15 AM 42.8 °F 41.1 °F 35.6 °F 76% 30.34 in 10.0 mi NW 3.5 mph - N/A   Clear
6:35 AM 41.0 °F 39.0 °F 35.6 °F 81% 30.35 in 10.0 mi NW 3.5 mph - N/A   Clear
6:55 AM 41.0 °F - 35.6 °F 81% 30.35 in 10.0 mi Calm Calm - N/A   Clear
7:15 AM 41.0 °F - 35.6 °F 81% 30.36 in 10.0 mi Calm Calm - N/A   Clear
7:35 AM 39.2 °F - 35.6 °F 87% 30.37 in 10.0 mi Calm Calm - N/A   Clear
7:55 AM 41.0 °F - 35.6 °F 81% 30.38 in 10.0 mi Calm Calm - N/A   Clear
8:15 AM 42.8 °F - 37.4 °F 81% 30.39 in 10.0 mi Calm Calm - N/A   Clear
8:35 AM 44.6 °F - 39.2 °F 81% 30.40 in 10.0 mi Calm Calm - N/A   Clear
8:55 AM 48.2 °F - 39.2 °F 71% 30.41 in 10.0 mi Calm Calm - N/A   Clear
9:15 AM 51.8 °F - 39.2 °F 62% 30.41 in 10.0 mi North 4.6 mph - N/A   Clear
9:35 AM 53.6 °F - 37.4 °F 54% 30.42 in 10.0 mi North 3.5 mph - N/A   Clear
9:55 AM 55.4 °F - 35.6 °F 47% 30.43 in 10.0 mi Calm Calm - N/A   Clear
10:15 AM 57.2 °F - 35.6 °F 44% 30.43 in 10.0 mi Calm Calm - N/A   Clear
10:55 AM 60.8 °F - 33.8 °F 36% 30.43 in 10.0 mi NNE 4.6 mph - N/A   Clear
11:15 AM 64.4 °F - 32.0 °F 30% 30.43 in 10.0 mi NNE 5.8 mph - N/A   Clear
11:35 AM 64.4 °F - 30.2 °F 28% 30.43 in 10.0 mi NNE 4.6 mph - N/A   Clear
11:55 AM 64.4 °F - 26.6 °F 24% 30.43 in 10.0 mi Calm Calm - N/A   Clear
12:15 PM 64.4 °F - 26.6 °F 24% 30.42 in 10.0 mi North 6.9 mph - N/A   Clear
12:35 PM 64.4 °F - 26.6 °F 24% 30.41 in 10.0 mi Calm Calm - N/A   Clear
12:55 PM 66.2 °F - 28.4 °F 24% 30.41 in 10.0 mi North 5.8 mph - N/A   Clear
1:15 PM 66.2 °F - 26.6 °F 23% 30.40 in 10.0 mi North 8.1 mph - N/A   Clear
1:35 PM 66.2 °F - 24.8 °F 21% 30.39 in 10.0 mi ENE 4.6 mph - N/A   Clear
1:55 PM 66.2 °F - 24.8 °F 21% 30.38 in 10.0 mi North 5.8 mph - N/A   Clear
2:15 PM 66.2 °F - 24.8 °F 21% 30.38 in 10.0 mi NNW 4.6 mph - N/A   Clear
2:35 PM 68.0 °F - 24.8 °F 20% 30.38 in 7.0 mi Calm Calm - N/A   Clear
2:55 PM 68.0 °F - 24.8 °F 20% 30.38 in 10.0 mi Calm Calm - N/A   Clear
3:15 PM 68.0 °F - 23.0 °F 18% 30.37 in 10.0 mi North 4.6 mph - N/A   Clear
3:35 PM 68.0 °F - 21.2 °F 17% 30.37 in 10.0 mi Calm Calm - N/A   Clear
3:55 PM 68.0 °F - 23.0 °F 18% 30.36 in 10.0 mi North 5.8 mph - N/A   Clear
4:15 PM 68.0 °F - 24.8 °F 20% 30.36 in 10.0 mi Calm Calm - N/A   Clear
4:35 PM 68.0 °F - 24.8 °F 20% 30.35 in 10.0 mi Calm Calm - N/A   Clear
4:55 PM 66.2 °F - 24.8 °F 21% 30.34 in 10.0 mi Calm Calm - N/A   Clear
5:15 PM 66.2 °F - 24.8 °F 21% 30.35 in 10.0 mi Calm Calm - N/A   Clear
5:35 PM 66.2 °F - 24.8 °F 21% 30.35 in 7.0 mi Calm Calm - N/A   Clear
5:55 PM 64.4 °F - 26.6 °F 24% 30.35 in 10.0 mi Calm Calm - N/A   Clear
6:15 PM 60.8 °F - 30.2 °F 31% 30.36 in 10.0 mi Calm Calm - N/A   Clear
6:35 PM 57.2 °F - 33.8 °F 41% 30.36 in 10.0 mi Calm Calm - N/A   Clear
6:55 PM 55.4 °F - 32.0 °F 41% 30.36 in 10.0 mi NE 3.5 mph - N/A   Clear
7:15 PM 53.6 °F - 33.8 °F 47% 30.36 in 10.0 mi Calm Calm - N/A   Clear
7:35 PM 53.6 °F - 30.2 °F 41% 30.36 in 10.0 mi Calm Calm - N/A   Clear
7:55 PM 51.8 °F - 32.0 °F 47% 30.36 in 10.0 mi Calm Calm - N/A   Clear
8:15 PM 50.0 °F - 33.8 °F 54% 30.37 in 10.0 mi Calm Calm - N/A   Clear
8:35 PM 48.2 °F - 33.8 °F 58% 30.38 in 10.0 mi Calm Calm - N/A   Clear
8:55 PM 48.2 °F - 32.0 °F 54% 30.39 in 10.0 mi Calm Calm - N/A   Clear
9:15 PM 46.4 °F - 33.8 °F 62% 30.39 in 7.0 mi Calm Calm - N/A   Clear
9:35 PM 48.2 °F - 30.2 °F 50% 30.39 in 5.0 mi Calm Calm - N/A   Haze
9:55 PM 48.2 °F - 30.2 °F 50% 30.39 in 10.0 mi Calm Calm - N/A   Clear
10:15 PM 48.2 °F - 30.2 °F 50% 30.38 in 10.0 mi ENE 3.5 mph - N/A   Clear
10:35 PM 46.4 °F 45.2 °F 32.0 °F 57% 30.38 in 10.0 mi ENE 3.5 mph - N/A   Clear
10:55 PM 42.8 °F - 33.8 °F 70% 30.38 in 7.0 mi Calm Calm - N/A   Clear
11:15 PM 42.8 °F - 35.6 °F 76% 30.39 in 10.0 mi Calm Calm - N/A   Clear
11:35 PM 42.8 °F - 33.8 °F 70% 30.39 in 10.0 mi Calm Calm - N/A   Clear
11:55 PM 42.8 °F - 33.8 °F 70% 30.39 in 10.0 mi Calm Calm - N/A   Clear